User: anonymous   Login
Location: Hickory_Viewmont
(35.7830°N, 81.3170°W)
Time: 16:44:28
(UTC-04:00)
Language:

Okean-O - Orbit

View from above orbital plane
View from above orbital plane
View from above satellite
View from above satellite

Ground track
Ground track

The orbit data is extracted from the following two-line orbital elements,

1 25860U 99039A   17084.51380271 +.00000079 +00000-0 +18919-4 0  9996
2 25860 098.1799 068.2753 0001796 076.6147 283.5263 14.76457478951389
Epoch (UTC): 25 March 2017 12:19:52
Eccentricity: 0.0001796
inclination: 98.1799°
perigee height: 639 km
apogee height: 642 km
right ascension of ascending node: 68.2753°
argument of perigee: 76.6147°
revolutions per day: 14.76457478
mean anomaly at epoch: 283.5263°
orbit number at epoch: 95138

The dashed part of the orbit path shows where the satellite is in the earth's shadow,  

DLR